Wind_Speed
3 3 2 2 2 2 2 2 2 2 2 2 2 3 3 3 4 4 4 4 4 4 4 3 3 3 3 3 3 3 3 3 3 3 3 3 3 3 3 3 3 3 3 4 4 4 5 5 5
4 3 3 2 2 2 2 2 2 2 2 2 2 2 3 3 3 3 4 5 5 4 4 4 4 3 4 4 4 4 4 4 4 4 4 4 4 4 4 4 4 4 4 4 4 5 5 6 6
4 4 3 3 2 2 2 2 2 3 3 2 1 1 2 3 3 3 4 4 5 4 4 4 4 4 4 4 5 4 5 5 5 4 4 4 4 5 5 5 5 5 5 5 5 6 6 6 6
5 4 3 3 3 3 3 3 3 3 3 2 2 2 2 3 3 3 3 3 3 4 3 4 4 4 5 5 5 6 6 6 6 6 5 5 5 5 6 6 6 7 6 6 6 6 6 6 7
5 4 4 4 4 3 3 3 3 3 3 3 3 3 3 3 4 3 3 4 4 4 4 4 4 4 5 5 5 6 6 7 7 7 6 6 6 6 7 7 7 7 7 7 8 8 7 8 8
5 5 4 5 4 4 4 3 3 4 4 4 4 4 4 4 4 4 4 4 4 4 4 5 5 5 5 5 6 6 7 7 7 8 7 7 7 7 7 7 8 8 8 8 8 8 9 9 9
5 5 5 5 5 5 5 4 4 4 5 5 5 5 5 5 5 5 5 5 5 5 5 5 6 6 6 6 6 6 7 7 8 8 8 8 8 8 8 8 8 9 9 9 8 9 9 9 9
6 6 6 6 6 6 5 5 5 5 5 5 5 5 5 6 6 6 6 6 6 6 6 6 6 6 7 7 7 7 7 7 7 8 8 8 8 8 8 8 9 9 9 9 9 9 9 10 10
6 6 6 7 7 6 5 5 5 5 5 5 5 5 6 6 6 6 6 6 6 6 7 7 7 7 7 7 7 7 7 7 7 7 8 8 8 8 8 8 8 9 9 9 9 10 10 10 10
7 7 7 7 7 7 6 6 5 5 5 5 5 5 6 6 6 7 7 7 7 7 7 7 7 7 7 7 8 8 8 7 8 8 8 8 8 8 8 9 9 9 9 9 10 10 10 10 10
7 8 8 8 8 7 6 6 6 5 5 5 6 6 6 6 7 7 7 7 7 7 8 8 8 8 8 8 8 9 8 8 8 8 9 9 9 9 9 9 9 9 9 8 9 9 9 10 10
8 8 8 8 8 7 6 6 6 6 6 6 6 6 6 7 7 7 7 7 8 8 8 8 8 8 8 8 9 9 8 8 8 9 9 9 9 9 10 10 10 9 9 9 8 8 9 9 10
9 9 9 9 8 8 7 7 7 7 7 7 7 7 7 7 7 7 7 7 8 8 8 8 8 9 9 9 9 9 9 9 9 9 9 10 10 11 11 11 11 10 10 10 9 9 8 9 10
9 10 10 9 9 9 9 9 9 9 8 8 8 8 8 8 8 8 8 8 8 9 9 9 9 9 9 9 9 9 9 9 9 9 9 10 10 10 10 10 10 10 9 9 9 9 9 10 10
10 10 10 10 10 10 10 10 10 10 10 9 8 8 8 8 8 9 9 10 10 10 10 10 10 9 9 9 10 10 10 10 10 10 10 11 11 11 11 11 10 11 11 10 10 10 10 10 10
10 10 11 10 10 10 11 11 11 11 10 10 10 9 9 9 8 8 9 9 10 10 10 10 9 9 9 9 9 9 9 10 10 10 11 11 11 11 11 12 12 12 12 11 11 11 11 11 11
11 11 11 11 11 11 12 12 11 11 11 11 11 10 10 10 9 9 9 9 10 10 10 10 9 9 9 9 9 9 10 10 10 11 10 10 10 10 10 11 12 12 11 12 11 12 12 12 12
11 12 12 12 12 12 13 12 12 12 12 12 12 12 11 11 10 10 10 10 10 10 10 10 10 9 9 9 9 10 10 10 11 11 10 10 10 10 10 10 11 11 12 12 13 13 13 13 13
12 13 13 13 13 13 14 13 13 13 13 13 13 13 13 12 12 11 11 10 10 10 10 10 10 10 9 9 10 10 10 11 11 10 10 10 10 11 10 11 11 11 12 13 14 14 14 14 14
12 12 13 14 14 14 14 14 14 14 14 14 14 13 14 13 12 12 11 11 11 10 10 10 10 10 11 11 11 11 12 12 11 11 10 11 11 12 12 12 12 13 13 14 14 14 14 15 15
12 12 13 13 13 14 15 15 15 15 15 14 14 14 13 13 13 13 13 12 12 12 11 11 11 11 12 12 12 12 12 13 13 12 12 12 12 12 13 13 13 13 13 14 14 14 15 15 16
12 12 12 12 13 13 14 16 16 16 15 15 15 14 14 14 14 13 13 13 13 13 13 13 12 12 13 13 13 13 13 13 12 13 13 13 13 13 13 13 14 14 14 14 14 15 15 16 16
12 12 12 13 13 14 14 15 16 16 16 16 16 15 16 15 15 15 15 15 14 14 13 13 13 13 13 13 14 14 14 13 13 13 14 14 14 14 14 13 14 14 15 15 15 15 15 16 17
13 13 13 14 14 15 15 15 16 16 15 15 15 16 16 16 16 16 16 16 16 15 15 14 14 14 14 14 14 14 14 14 14 15 15 15 15 15 15 15 15 16 16 16 16 16 16 17 18
14 13 14 15 15 16 15 16 16 16 16 16 16 16 16 16 16 16 16 16 17 17 17 16 16 16 15 16 16 15 15 15 15 15 15 15 15 15 16 16 16 17 17 17 17 17 18 18 19
14 14 15 16 16 16 16 17 17 16 16 16 16 15 15 15 15 16 16 16 16 17 17 17 17 17 17 17 17 17 17 17 16 17 17 16 16 17 17 16 17 17 17 17 18 18 19 20 21
15 15 16 16 16 16 17 18 17 17 17 16 16 16 16 15 15 16 16 17 17 18 18 17 17 18 18 18 18 18 19 18 18 18 18 17 17 17 17 17 18 18 18 18 19 19 20 21 21
15 15 16 16 17 17 17 18 18 17 17 17 17 17 17 16 16 16 16 17 18 18 18 18 18 18 19 20 20 20 20 19 19 19 19 18 18 18 19 19 19 19 19 19 20 21 21 22 23
15 16 16 17 17 18 18 18 18 18 17 17 17 17 17 17 17 17 17 18 17 18 18 19 19 19 19 20 20 20 21 21 21 20 20 20 20 20 20 20 20 21 21 21 21 22 23 24 24
16 16 16 17 17 18 19 18 18 18 18 18 17 17 18 18 18 18 18 19 18 19 19 20 20 20 21 21 21 21 22 23 22 22 22 22 21 22 22 22 22 22 23 23 23 24 24 25 25
Wind_Direction
165 163 148 145 154 160 168 183 181 176 176 171 170 179 191 197 202 211 214 214 216 219 219 222 233 245 253 254 256 261 269 269 276 279 274 271 269 269 272 272 272 269 266 264 265 260 261 263 264
168 164 157 150 143 162 179 196 199 188 184 176 167 175 193 203 210 215 220 224 225 226 226 228 242 254 258 257 260 260 258 267 276 274 273 268 263 267 269 262 273 271 262 259 260 261 262 263 266
181 174 165 163 164 195 210 215 208 205 206 197 170 163 190 202 206 213 225 229 230 232 233 240 254 264 265 262 268 264 258 264 268 272 274 274 270 268 271 267 269 267 260 255 255 258 260 262 266
189 184 181 185 197 217 226 232 223 227 236 238 223 216 210 214 218 230 235 237 238 239 245 254 265 271 268 266 269 268 263 263 267 274 278 277 276 274 273 268 267 267 264 259 259 263 262 264 267
195 193 197 205 214 227 231 232 230 245 255 255 248 243 239 240 244 246 246 249 245 242 251 261 269 268 265 263 265 268 267 267 270 272 272 275 276 274 272 266 266 267 267 265 260 263 265 267 266
199 204 209 217 224 232 233 238 242 248 257 261 257 250 246 252 254 252 250 254 256 256 259 263 262 263 263 265 264 268 269 271 272 270 269 270 272 273 271 268 267 267 269 272 268 266 268 267 268
204 210 218 225 229 231 231 237 244 254 261 265 264 254 252 258 260 258 255 258 259 260 261 264 262 262 263 264 266 270 272 272 274 274 272 270 270 269 270 268 268 269 268 269 272 272 271 269 270
216 222 227 232 235 235 235 240 246 256 266 271 269 261 258 260 261 261 259 259 261 261 263 264 264 263 263 266 268 269 270 271 273 275 274 274 273 272 273 271 268 269 268 267 270 273 273 272 273
225 229 235 238 239 241 241 245 248 252 261 266 269 266 262 261 262 261 262 260 260 262 261 263 262 264 265 265 266 267 268 270 272 274 273 276 277 277 277 275 273 274 272 270 272 275 278 278 278
229 233 236 241 241 239 240 242 245 250 256 261 265 267 264 263 266 265 262 259 257 260 261 260 263 264 266 266 265 266 267 269 271 272 273 275 276 275 276 276 274 275 274 274 275 276 278 278 280
232 233 236 238 240 239 239 242 244 250 256 263 265 266 265 265 270 270 265 260 257 257 259 260 264 265 266 266 265 263 265 269 272 272 272 274 274 275 277 276 273 276 277 278 276 276 279 279 280
236 236 234 237 240 243 248 248 250 255 260 265 267 270 268 268 270 270 267 257 255 260 262 263 266 267 266 265 265 264 266 270 272 273 273 275 276 275 277 275 274 276 277 277 278 279 281 284 282
236 237 237 239 243 244 248 249 253 256 260 267 269 272 272 270 269 267 262 260 260 261 264 268 270 265 264 265 265 266 267 270 272 275 276 278 278 276 277 275 272 273 274 273 273 275 281 284 284
240 240 240 243 245 245 246 249 253 256 260 266 268 270 271 270 269 266 261 259 262 266 266 266 268 268 267 266 265 267 268 271 273 274 277 279 278 276 278 278 274 272 274 277 278 276 279 282 282
243 245 245 247 250 249 251 249 250 256 260 265 267 268 269 270 268 266 263 263 263 263 264 264 266 268 271 270 266 265 267 270 273 275 279 280 279 278 277 277 276 272 272 273 275 277 276 276 278
247 248 249 250 251 251 252 250 251 255 260 263 264 266 268 268 270 271 267 264 263 262 264 263 263 266 268 270 272 266 268 270 274 278 280 279 278 277 278 278 278 275 274 273 273 276 277 277 279
249 249 251 253 252 251 250 250 254 257 260 262 264 266 268 268 269 270 267 263 261 261 264 262 260 261 263 269 275 271 272 273 277 281 280 280 280 283 282 282 282 279 274 271 271 274 276 276 277
252 251 252 254 255 254 252 253 257 260 263 263 263 264 265 267 270 271 269 266 264 263 265 266 266 266 268 273 276 276 277 280 282 285 286 285 287 289 291 289 281 276 273 271 272 274 275 276 276
253 252 253 255 256 257 256 257 259 263 264 263 263 264 264 265 267 270 269 267 267 266 265 266 265 266 269 275 278 277 279 283 284 285 287 286 286 288 289 288 286 284 277 276 275 276 277 275 276
255 254 256 256 254 256 258 261 261 261 264 265 266 266 265 264 266 267 265 264 265 267 267 265 264 267 270 275 280 283 281 284 282 283 285 286 285 286 286 287 286 282 279 277 279 279 279 279 279
254 255 256 257 256 256 258 258 261 262 262 264 265 263 263 264 265 264 265 264 264 266 267 267 268 270 274 280 284 286 286 284 282 280 284 284 286 288 284 285 286 287 284 281 281 281 282 282 282
257 257 259 259 259 258 258 258 258 260 262 264 264 263 263 263 263 264 263 261 262 265 264 266 269 273 277 280 281 281 285 283 280 281 282 282 286 290 289 287 287 288 285 282 283 285 284 283 282
260 260 260 261 261 262 261 260 259 261 263 264 264 263 264 264 264 265 263 260 262 263 264 266 269 272 275 278 279 280 281 280 280 282 282 281 285 289 291 290 288 288 287 283 284 286 286 286 285
262 260 259 259 261 262 262 261 260 262 264 266 265 265 265 264 265 266 264 264 264 265 265 266 270 272 275 277 278 278 280 279 280 281 283 284 285 287 289 290 291 290 287 284 284 286 286 286 286
261 260 261 262 261 262 261 262 263 264 265 265 267 265 263 264 265 266 266 267 266 265 268 269 270 271 274 276 278 277 279 280 281 281 282 282 283 286 287 288 289 290 288 285 286 287 287 287 286
258 258 258 261 262 262 263 264 265 266 266 267 267 265 264 263 264 264 265 267 268 268 269 271 272 272 273 274 277 277 279 281 282 281 281 282 283 284 286 287 289 291 288 287 286 286 286 287 288
258 257 258 260 263 263 263 265 266 267 268 268 267 264 263 263 263 263 264 266 267 268 270 271 272 272 271 272 274 275 278 280 281 282 282 282 283 284 286 286 287 290 290 288 287 287 287 288 289
260 260 259 261 263 265 267 268 267 270 270 269 268 265 263 263 262 262 265 266 266 267 268 272 273 273 271 270 272 274 276 279 280 280 280 281 282 284 285 287 287 289 290 290 289 289 289 289 289
260 258 259 261 263 265 269 271 271 272 270 270 267 264 263 261 260 261 263 266 266 265 267 270 272 272 273 272 272 274 275 277 278 279 279 280 281 283 284 286 286 288 289 289 289 292 292 290 289
258 258 258 259 262 263 266 271 272 271 269 268 266 265 264 262 261 261 263 264 265 267 267 268 270 271 272 273 274 274 277 277 277 277 278 279 280 282 283 285 287 287 288 288 289 290 291 291 290
Height
5881 5881 5882 5883 5884 5884 5884 5884 5884 5884 5884 5884 5884 5883 5883 5884 5885 5887 5884 5882 5882 5882 5882 5881 5881 5881 5881 5881 5880 5880 5880 5879 5879 5878 5877 5877 5877 5876 5876 5875 5875 5875 5875 5874 5874 5874 5874 5873 5873
5880 5881 5882 5883 5883 5884 5884 5884 5884 5884 5884 5883 5883 5883 5883 5883 5883 5883 5882 5882 5882 5881 5881 5881 5881 5880 5880 5880 5880 5879 5879 5879 5878 5877 5877 5876 5876 5876 5875 5875 5874 5874 5874 5874 5873 5873 5873 5872 5872
5880 5881 5883 5883 5883 5884 5884 5884 5883 5883 5883 5883 5883 5883 5883 5883 5882 5882 5882 5881 5881 5881 5880 5880 5880 5880 5879 5879 5879 5878 5878 5878 5877 5877 5876 5876 5875 5875 5874 5874 5873 5873 5873 5872 5872 5872 5872 5871 5871
5880 5881 5882 5883 5882 5883 5883 5883 5883 5883 5883 5882 5882 5882 5882 5882 5881 5881 5881 5881 5880 5880 5880 5880 5879 5879 5878 5878 5878 5878 5877 5877 5876 5876 5875 5875 5874 5874 5873 5873 5872 5872 5872 5871 5871 5871 5871 5870 5870
5879 5881 5882 5881 5882 5882 5882 5882 5882 5882 5882 5882 5881 5881 5881 5881 5881 5880 5880 5880 5879 5879 5879 5879 5878 5878 5878 5877 5877 5877 5876 5876 5875 5875 5874 5874 5873 5873 5872 5871 5871 5871 5870 5870 5870 5869 5869 5869 5869
5879 5880 5881 5881 5881 5881 5881 5881 5881 5881 5881 5881 5880 5880 5880 5880 5880 5879 5879 5879 5878 5878 5878 5878 5877 5877 5877 5876 5876 5876 5875 5875 5874 5873 5873 5872 5872 5871 5871 5870 5870 5869 5869 5868 5868 5868 5867 5867 5867
5879 5879 5879 5880 5880 5880 5880 5880 5880 5880 5880 5880 5879 5879 5879 5879 5878 5878 5878 5878 5877 5877 5877 5877 5876 5876 5876 5875 5875 5874 5874 5873 5873 5872 5871 5871 5870 5870 5869 5868 5868 5867 5867 5867 5866 5866 5866 5865 5865
5877 5879 5878 5879 5879 5879 5879 5879 5879 5879 5879 5878 5878 5878 5878 5878 5877 5877 5876 5876 5876 5876 5876 5875 5875 5875 5874 5874 5874 5873 5872 5872 5871 5871 5870 5869 5869 5868 5867 5867 5866 5866 5865 5865 5865 5864 5864 5863 5863
5876 5878 5877 5878 5878 5878 5878 5878 5878 5878 5878 5877 5877 5877 5876 5876 5876 5875 5875 5875 5875 5875 5875 5874 5874 5873 5873 5873 5872 5872 5871 5870 5870 5869 5869 5868 5867 5866 5865 5865 5865 5864 5864 5863 5863 5862 5862 5861 5861
5874 5876 5876 5876 5876 5876 5876 5877 5877 5876 5876 5876 5876 5875 5875 5874 5874 5874 5874 5873 5873 5873 5873 5873 5872 5872 5871 5871 5870 5870 5869 5869 5868 5868 5867 5866 5865 5864 5864 5863 5863 5862 5862 5861 5861 5860 5860 5859 5859
5873 5874 5874 5874 5875 5875 5875 5875 5875 5875 5875 5875 5875 5874 5874 5873 5873 5872 5872 5872 5872 5872 5871 5871 5871 5870 5870 5869 5869 5868 5868 5867 5866 5866 5865 5864 5863 5863 5862 5862 5861 5861 5860 5860 5859 5858 5858 5857 5857
5871 5872 5872 5873 5873 5873 5874 5874 5874 5874 5874 5874 5873 5873 5872 5872 5871 5871 5870 5870 5870 5870 5869 5869 5869 5868 5868 5867 5867 5866 5866 5865 5864 5864 5863 5862 5861 5861 5860 5859 5859 5858 5858 5858 5857 5857 5856 5855 5855
5869 5870 5870 5871 5871 5872 5872 5872 5872 5872 5872 5872 5872 5871 5871 5870 5870 5869 5869 5869 5868 5868 5868 5867 5867 5866 5866 5865 5865 5864 5864 5863 5862 5861 5861 5860 5859 5858 5858 5857 5857 5856 5856 5856 5855 5854 5854 5853 5853
5867 5867 5868 5869 5869 5870 5870 5871 5871 5871 5871 5870 5870 5870 5869 5868 5868 5868 5867 5867 5867 5866 5866 5866 5865 5865 5864 5863 5863 5862 5861 5861 5860 5859 5858 5857 5857 5856 5855 5855 5854 5854 5854 5853 5853 5852 5852 5851 5850
5864 5865 5866 5866 5867 5867 5868 5869 5869 5869 5869 5869 5868 5868 5867 5867 5866 5866 5865 5865 5865 5864 5864 5864 5863 5863 5862 5861 5861 5860 5859 5859 5858 5857 5856 5855 5854 5853 5853 5852 5852 5851 5851 5851 5850 5850 5849 5849 5848
5861 5862 5863 5864 5864 5865 5867 5867 5867 5866 5867 5867 5866 5866 5866 5865 5864 5864 5863 5863 5862 5862 5862 5862 5861 5861 5860 5859 5859 5858 5857 5857 5856 5855 5854 5853 5852 5851 5850 5850 5849 5849 5849 5848 5848 5847 5847 5846 5845
5859 5860 5861 5862 5862 5862 5863 5864 5864 5864 5864 5864 5864 5864 5863 5863 5863 5862 5861 5861 5860 5860 5860 5859 5859 5859 5858 5857 5857 5856 5855 5855 5854 5853 5852 5850 5849 5849 5848 5847 5847 5846 5846 5845 5845 5845 5844 5843 5843
5857 5857 5858 5859 5859 5859 5860 5861 5861 5861 5861 5861 5861 5861 5861 5861 5860 5860 5859 5859 5858 5858 5858 5857 5857 5856 5856 5855 5855 5854 5853 5853 5852 5850 5849 5848 5847 5847 5846 5845 5844 5844 5843 5843 5842 5841 5841 5840 5839
5853 5854 5855 5856 5856 5857 5857 5858 5858 5858 5858 5858 5858 5858 5858 5858 5858 5857 5857 5857 5856 5856 5855 5855 5855 5854 5854 5853 5853 5852 5851 5850 5849 5848 5847 5846 5845 5844 5843 5843 5842 5841 5840 5839 5839 5838 5837 5836 5836
5850 5851 5852 5853 5853 5853 5854 5854 5855 5855 5855 5855 5855 5855 5855 5855 5855 5855 5854 5854 5854 5854 5853 5853 5852 5852 5851 5851 5850 5849 5848 5848 5847 5846 5845 5844 5843 5842 5841 5840 5839 5838 5837 5836 5835 5835 5834 5833 5832
5847 5847 5848 5849 5850 5850 5851 5851 5851 5851 5851 5851 5851 5852 5851 5851 5852 5852 5851 5851 5851 5851 5850 5850 5850 5849 5848 5848 5847 5846 5845 5844 5843 5843 5842 5841 5840 5839 5838 5837 5836 5835 5834 5833 5832 5832 5831 5830 5828
5843 5844 5844 5845 5846 5846 5848 5848 5848 5847 5847 5847 5848 5848 5848 5848 5848 5848 5848 5848 5848 5848 5847 5847 5847 5846 5845 5845 5844 5843 5842 5841 5841 5840 5839 5838 5837 5835 5834 5833 5832 5831 5830 5829 5828 5828 5826 5825 5824
5840 5840 5841 5841 5842 5843 5843 5843 5844 5843 5843 5844 5844 5844 5844 5844 5844 5844 5844 5844 5844 5844 5844 5843 5843 5842 5842 5841 5841 5840 5839 5838 5837 5836 5835 5834 5833 5832 5831 5830 5828 5827 5826 5825 5824 5823 5822 5821 5820
5836 5837 5837 5837 5838 5839 5839 5839 5840 5839 5840 5840 5840 5840 5840 5839 5839 5840 5840 5840 5840 5840 5840 5840 5839 5839 5838 5838 5837 5836 5835 5835 5834 5833 5832 5831 5829 5828 5827 5826 5825 5823 5822 5821 5820 5819 5818 5817 5815
5832 5833 5834 5833 5834 5835 5835 5835 5836 5835 5835 5835 5835 5835 5835 5835 5835 5835 5835 5835 5835 5836 5836 5835 5835 5835 5835 5834 5833 5833 5832 5831 5830 5829 5828 5827 5825 5824 5823 5822 5820 5819 5818 5817 5815 5814 5813 5812 5810
5828 5829 5830 5830 5830 5831 5830 5830 5831 5831 5831 5830 5831 5831 5831 5831 5831 5831 5831 5831 5831 5831 5831 5831 5831 5830 5830 5830 5829 5828 5827 5826 5826 5824 5823 5822 5821 5820 5819 5817 5816 5815 5813 5812 5811 5809 5808 5806 5805
5823 5824 5825 5825 5825 5826 5826 5826 5826 5825 5825 5825 5826 5826 5826 5826 5826 5826 5826 5826 5826 5826 5826 5826 5826 5825 5825 5825 5824 5823 5823 5822 5821 5820 5819 5818 5817 5816 5814 5813 5812 5810 5809 5807 5806 5804 5803 5801 5799
5819 5819 5820 5820 5820 5820 5821 5821 5822 5821 5820 5821 5820 5820 5821 5821 5821 5821 5821 5821 5821 5821 5821 5820 5820 5820 5819 5819 5819 5818 5817 5816 5816 5815 5814 5813 5812 5811 5809 5808 5807 5805 5804 5802 5800 5799 5797 5795 5793
5814 5815 5814 5815 5815 5816 5816 5819 5816 5816 5815 5815 5815 5815 5815 5815 5815 5815 5815 5815 5815 5815 5815 5815 5815 5814 5814 5813 5813 5812 5812 5811 5810 5809 5808 5807 5806 5805 5804 5803 5801 5799 5798 5796 5795 5793 5790 5788 5786
5808 5809 5810 5810 5810 5810 5811 5814 5811 5811 5810 5809 5809 5809 5809 5810 5810 5810 5810 5810 5810 5809 5809 5809 5809 5808 5808 5807 5807 5806 5806 5805 5804 5803 5803 5802 5801 5799 5798 5797 5795 5794 5792 5790 5788 5786 5784 5782 5779